GFSCGP_250_rhum_189.txt.gz
RH
100 100 100 100 100 85 98 100 100 88 100 100 97 71 83 84 66 56 50 44 43 45 44 44 52 75 82 74 52 75 100 100 100 100 90 88 78 94 88 80 73 73 86 100
100 100 100 95 88 91 81 79 100 100 94 68 70 73 99 75 64 56 51 41 34 34 39 49 75 65 85 76 92 100 100 88 99 98 95 100 100 100 100 100 100 90 93 98
100 100 100 98 97 100 98 100 100 100 85 99 83 76 79 82 63 51 42 38 35 41 50 60 100 99 100 100 100 89 66 93 100 100 91 98 100 100 100 100 99 100 100 100
86 100 80 85 81 78 85 74 71 70 76 88 75 56 93 75 55 38 39 49 51 54 76 100 100 100 100 96 93 100 100 100 96 82 89 100 94 100 100 91 89 89 79 72
100 100 83 83 100 100 88 100 100 100 100 88 99 85 81 63 43 45 51 84 100 87 81 91 100 100 100 100 99 92 85 88 83 75 66 55 53 50 54 57 64 63 63 76
99 100 95 100 98 94 100 100 90 88 83 71 86 76 57 47 44 48 88 100 100 100 100 100 96 77 71 78 71 68 64 55 49 43 48 46 43 41 41 50 69 77 99 98
100 100 100 100 100 100 99 100 95 94 97 96 76 52 50 44 58 57 79 69 87 77 71 67 56 61 67 65 58 48 43 40 37 39 39 48 50 51 46 48 52 79 94 100
100 100 100 100 100 100 98 100 97 91 90 80 68 46 51 65 65 72 77 63 65 65 73 58 46 49 46 49 48 44 42 42 35 34 38 42 54 50 56 72 76 99 90 100
100 96 100 100 100 100 100 98 100 85 70 56 44 46 72 74 98 100 90 95 100 67 55 51 43 44 49 52 50 46 38 35 42 35 34 43 61 68 66 77 92 100 100 100
100 98 97 98 99 99 89 80 71 57 46 49 54 70 100 100 95 89 65 53 44 48 49 43 41 41 41 41 43 46 47 44 53 68 87 100 100 97 99 100 100 100 100 100
100 97 90 83 72 61 60 60 63 74 57 71 84 76 61 81 87 62 50 47 53 54 53 46 45 50 50 48 55 56 64 80 84 100 100 94 100 100 100 100 100 100 100 100
82 69 62 66 76 77 79 68 73 80 91 52 34 48 83 92 81 61 55 57 52 54 54 52 49 55 62 62 92 100 100 100 100 100 100 100 100 91 98 92 92 86 100 100
92 88 78 68 60 77 100 99 82 61 60 54 62 55 89 79 81 64 63 59 54 53 60 58 57 52 73 88 99 100 100 100 100 100 100 100 100 100 98 99 100 100 100 100
96 96 100 100 98 94 90 96 72 56 48 52 55 70 64 78 74 66 55 52 58 63 61 77 95 96 100 91 76 74 73 100 100 100 100 100 100 100 98 98 100 89 91 72
100 100 100 100 92 97 96 89 95 93 87 76 80 73 53 54 49 44 48 47 57 70 81 84 89 93 86 72 67 71 72 98 100 100 100 100 100 100 93 77 82 78 69 59
100 100 100 99 100 100 99 91 98 100 96 66 56 45 50 49 46 46 57 71 68 73 60 51 52 76 99 87 100 76 96 100 100 100 95 99 96 92 72 78 82 67 68 90
100 100 100 100 100 100 82 93 88 84 82 95 74 66 65 69 71 80 92 100 96 97 100 95 86 86 100 100 100 100 100 100 100 100 100 96 82 73 70 59 65 70 87 88
100 100 100 100 100 99 100 100 100 99 96 83 90 86 90 83 92 100 100 100 99 100 100 100 96 83 100 100 100 100 100 100 100 100 78 69 42 44 41 55 58 93 69 86
100 100 100 100 100 96 91 100 100 99 99 94 93 100 100 100 100 100 100 100 100 100 100 100 100 99 100 100 100 100 100 92 56 49 29 25 26 30 34 50 88 100 100 99
100 100 100 97 94 94 77 97 100 99 93 96 99 100 100 100 100 100 100 100 100 100 100 100 100 100 100 100 99 84 64 51 27 27 24 23 23 27 25 38 73 70 74 100
98 93 100 97 99 92 100 100 97 92 80 96 100 100 100 100 100 100 100 100 96 100 100 100 100 100 100 87 71 50 28 19 18 14 13 13 18 20 19 23 64 68 82 94
100 100 100 100 100 100 100 97 100 100 100 94 100 99 100 100 100 92 100 100 100 100 100 100 100 91 68 29 15 10 8 9 8 8 7 7 7 23 36 30 39 95 100 100
100 100 100 100 98 100 96 99 99 100 100 100 98 100 100 100 100 100 100 100 100 100 100 91 82 33 11 8 7 6 6 6 8 9 8 8 7 9 73 50 49 100 100 88
100 100 100 100 99 98 91 100 100 100 100 100 100 100 100 100 100 100 100 100 100 97 97 62 36 9 7 7 7 6 4 5 5 8 8 7 7 8 12 50 53 90 100 100
100 100 100 100 100 100 100 100 100 100 100 100 100 100 100 100 100 98 92 77 53 32 19 8 6 5 6 5 5 4 4 4 5 7 8 7 7 7 8 47 44 75 100 100
100 100 100 100 100 100 100 100 100 100 100 100 100 100 99 93 92 68 31 28 18 7 7 6 5 4 4 4 4 5 4 4 4 6 7 7 7 8 7 26 36 54 96 100

GFSCGP_250_rhum_192.txt.gz
RH
99 87 99 100 98 98 100 96 94 100 100 100 100 100 100 100 100 100 72 80 60 57 54 46 32 26 33 35 40 90 74 48 95 100 99 69 97 100 100 100 100 99 96 87
100 94 100 100 100 100 100 94 84 94 99 100 99 100 100 100 100 76 70 85 82 62 49 35 26 37 59 49 68 91 100 100 99 86 42 48 80 99 96 100 100 100 100 100
96 89 94 100 100 86 98 95 87 65 89 96 89 96 100 100 100 88 94 99 82 58 44 30 28 73 67 89 100 100 85 72 84 100 100 90 85 82 77 77 77 86 87 78
59 93 98 100 99 100 78 74 65 48 73 87 98 78 100 100 89 99 94 89 62 54 43 29 50 74 100 100 67 77 76 75 79 79 78 78 76 76 78 74 68 68 58 56
77 70 99 80 100 96 63 46 47 83 84 72 91 86 100 100 100 100 87 80 62 53 34 30 66 91 66 69 61 60 59 51 55 69 73 65 56 55 57 66 66 71 69 62
100 100 100 100 100 80 87 94 93 100 100 85 92 84 89 100 100 96 90 75 59 42 29 62 100 100 98 85 68 56 48 46 45 47 54 57 53 66 76 65 44 51 56 55
100 100 100 100 99 100 99 100 90 88 96 98 100 90 98 100 100 94 78 66 51 28 42 90 100 96 65 52 55 57 56 54 52 45 44 52 65 64 68 45 42 58 53 47
100 96 100 100 90 100 100 100 100 100 100 100 99 96 100 93 89 78 58 47 35 39 52 69 67 69 64 71 73 71 70 75 72 60 48 41 45 44 48 39 41 46 66 75
100 100 100 100 100 100 100 100 100 100 100 100 100 94 100 88 73 59 47 34 33 37 44 52 65 76 70 75 70 78 77 70 66 65 72 69 61 52 44 39 43 87 94 93
89 84 94 98 100 99 99 100 100 100 100 100 97 93 91 77 60 45 41 33 32 30 45 58 71 72 73 65 68 81 87 85 86 86 75 65 62 62 74 100 100 100 82 100
100 94 90 95 98 100 97 95 100 100 96 100 93 84 91 60 48 45 42 26 31 37 47 53 62 64 66 58 54 52 56 67 64 59 55 60 59 83 100 100 100 100 99 100
100 100 100 100 100 93 96 98 100 90 90 89 74 67 66 58 61 41 28 29 36 44 49 65 68 66 55 50 47 38 40 46 54 55 61 70 69 83 84 82 89 100 100 100
100 100 100 100 100 98 93 94 74 68 72 58 65 57 75 79 65 50 43 33 57 68 71 61 42 44 42 41 37 37 49 57 56 62 89 94 100 89 97 90 100 100 100 100
100 98 98 97 92 92 84 90 75 62 58 64 70 93 73 63 62 54 78 88 62 60 48 49 50 44 43 40 38 47 57 66 72 84 97 100 98 100 100 100 100 100 100 100
74 75 76 100 91 95 96 84 67 79 71 69 76 78 78 81 97 98 77 70 60 70 73 64 58 62 59 55 63 63 69 76 77 92 100 100 100 100 100 100 100 100 100 100
54 53 54 69 81 87 91 87 59 70 90 73 93 100 99 79 68 88 97 100 98 93 95 90 84 76 81 97 91 93 93 92 90 93 100 100 100 100 100 100 100 100 100 100
80 97 93 70 81 78 59 65 68 58 58 56 57 78 91 100 100 100 96 100 100 96 80 83 91 99 86 88 95 94 100 100 100 100 100 100 100 100 100 100 100 100 100 61
90 98 97 89 93 83 90 96 98 94 98 100 97 100 100 100 100 100 100 100 95 87 84 93 97 100 94 90 100 97 99 100 100 100 100 100 100 100 100 100 100 56 46 27
100 99 100 100 100 100 100 100 100 100 100 100 100 100 100 100 100 100 100 99 99 98 99 96 87 92 93 100 100 100 100 100 100 100 100 100 100 100 100 100 29 18 17 14
100 100 100 100 100 100 100 100 100 100 100 100 100 100 100 99 87 100 99 100 100 99 94 90 96 98 99 100 100 100 100 100 100 100 100 100 100 86 33 24 14 14 13 13
100 100 100 100 99 99 100 100 100 99 100 100 100 100 100 100 100 100 98 98 96 96 99 99 92 100 100 100 100 100 100 100 100 97 85 78 26 11 10 11 11 12 13 14
100 100 100 100 100 89 99 100 99 100 96 94 100 96 92 99 100 99 100 100 93 96 100 100 100 100 100 100 100 100 100 100 79 45 17 11 9 8 8 9 10 12 13 16
100 100 100 100 100 97 78 82 86 93 91 87 94 99 98 100 100 99 94 98 99 100 100 100 100 100 100 100 100 100 91 55 17 9 8 9 9 8 6 6 8 9 12 15
100 93 89 99 100 100 100 100 100 100 100 100 100 100 100 100 90 100 90 98 100 100 100 100 100 100 100 99 92 58 21 12 9 9 7 5 5 6 5 5 6 7 12 15
100 100 100 100 100 100 96 95 92 94 100 99 100 100 97 98 100 100 100 100 100 100 100 100 100 100 76 61 22 15 9 9 7 5 5 4 5 5 4 5 5 6 11 16
100 99 99 100 98 99 100 100 96 97 96 100 100 100 100 100 100 100 100 100 100 100 100 100 78 64 46 15 8 9 6 4 4 4 4 4 4 4 4 4 5 6 9 12

GFSCGP_250_rhum_198.txt.gz
RH
33 63 82 96 86 87 99 92 100 100 100 92 100 100 92 88 96 100 100 84 76 76 100 96 99 100 100 92 100 97 86 66 48 73 57 39 39 31 28 31 31 34 41 46
57 67 87 94 95 100 100 100 100 100 100 93 81 86 100 87 71 74 94 87 63 74 79 100 100 100 100 95 100 100 92 69 59 55 53 42 40 39 34 38 39 42 49 78
88 98 100 100 100 100 100 100 100 91 96 89 63 60 77 74 71 65 64 59 78 92 100 100 100 100 96 87 100 100 87 62 48 46 56 50 46 49 52 52 58 73 93 83
68 83 100 100 100 100 100 100 96 96 79 75 70 52 50 54 62 63 59 73 81 67 86 100 100 91 70 99 100 100 78 54 45 45 50 48 54 69 66 80 76 75 69 78
85 100 100 100 100 100 100 100 100 99 80 58 67 49 50 86 90 71 75 63 64 73 98 100 83 85 100 100 100 87 73 57 47 43 52 55 63 84 74 79 71 73 70 81
84 90 100 100 100 100 100 99 97 81 69 62 80 66 46 56 84 100 88 96 80 81 100 97 90 100 100 100 100 81 69 58 50 42 50 70 72 86 97 87 92 90 96 93
100 100 100 100 100 100 100 99 96 78 64 57 71 58 60 81 100 100 100 100 97 100 100 100 100 100 100 100 94 74 66 62 50 47 50 69 71 74 82 79 74 78 72 76
99 100 100 100 100 100 100 100 100 93 81 73 59 59 82 94 96 100 100 100 99 100 100 100 100 100 100 100 81 70 61 60 54 48 60 67 58 65 72 73 71 71 74 59
100 100 100 100 100 100 100 100 100 100 82 81 67 56 68 83 99 95 95 98 97 92 76 100 100 100 100 95 72 62 67 61 52 52 50 56 69 67 70 62 58 59 59 61
100 100 100 100 100 100 100 100 100 100 88 64 51 62 78 100 83 75 74 70 63 60 66 96 100 100 100 80 69 71 76 65 71 59 52 70 74 62 60 56 52 55 66 66
100 100 100 100 100 100 100 100 100 98 76 65 77 100 100 86 86 77 71 64 71 77 89 97 100 100 95 76 71 60 64 64 84 86 70 72 68 54 56 53 62 86 63 78
100 100 100 74 79 100 100 100 100 93 79 95 88 77 100 84 99 96 80 66 72 74 98 100 100 100 75 60 60 70 76 91 96 78 71 71 56 55 53 49 58 56 61 71
100 100 100 67 62 77 85 89 96 82 91 84 68 72 100 99 78 70 68 63 62 81 99 100 96 69 59 47 54 53 76 75 72 89 54 50 50 51 52 61 57 69 78 82
100 100 100 100 100 100 85 91 99 100 95 85 66 81 91 90 94 86 72 66 68 100 94 68 50 41 48 53 65 70 52 64 79 54 47 47 51 47 74 71 69 87 100 100
100 97 94 95 100 100 88 80 80 87 100 80 99 81 82 84 78 62 61 66 78 72 56 44 40 42 78 94 60 67 60 71 43 41 46 80 71 71 79 85 90 100 100 99
100 100 100 90 100 100 100 100 100 90 100 86 79 75 76 76 65 68 81 75 58 48 46 41 43 46 52 69 86 68 64 45 50 53 72 73 98 100 87 98 84 100 100 100
100 100 94 92 100 100 100 100 100 98 80 85 79 99 85 78 86 88 73 62 58 51 50 55 49 60 68 65 73 64 46 74 63 100 97 98 100 100 97 96 98 100 100 100
100 100 100 100 100 100 100 100 99 99 100 92 89 87 87 85 88 78 63 58 47 56 50 46 48 58 52 42 47 61 98 75 98 100 90 76 97 100 94 96 100 100 100 100
100 100 100 100 94 81 79 85 93 95 88 98 92 91 99 88 67 58 51 65 73 62 60 79 65 54 70 73 89 98 95 100 100 100 100 92 100 94 100 97 100 100 100 100
100 100 100 100 96 94 100 100 100 100 86 96 100 100 86 73 65 61 72 82 99 81 100 82 81 86 92 100 100 100 100 100 100 100 100 100 100 90 100 100 100 100 100 100
100 100 100 100 96 86 98 99 100 96 82 100 98 81 76 73 69 77 84 67 100 96 67 100 99 100 100 100 100 100 100 100 100 100 100 100 98 100 100 100 100 100 100 95
100 100 100 100 90 90 100 97 100 92 100 94 98 99 100 98 82 72 78 76 73 99 100 100 100 100 100 100 100 100 100 100 100 100 100 100 100 100 100 100 100 100 100 51
99 100 100 100 100 100 100 97 82 73 72 90 96 78 62 68 89 96 100 100 100 100 100 100 100 100 100 100 100 100 99 93 100 100 100 100 100 100 94 99 96 73 25 14
100 100 94 92 98 96 92 90 62 69 80 82 79 80 79 94 100 100 100 100 100 100 100 100 100 100 100 100 96 83 84 100 100 100 100 100 100 88 100 55 28 20 14 8
100 93 80 76 66 67 83 79 94 84 65 89 91 100 100 100 100 97 97 100 100 100 100 100 100 100 92 90 80 100 100 100 100 100 100 99 88 76 32 26 14 8 8 8
100 100 97 100 91 94 100 92 79 95 100 100 99 100 100 100 85 93 100 100 95 93 100 97 98 97 99 100 100 100 100 100 100 100 95 37 26 28 16 8 8 8 8 7

GFSCGP_250_rhum_201.txt.gz
RH
34 33 33 32 30 29 29 34 52 73 96 68 90 100 100 98 100 100 73 78 80 71 73 67 77 100 99 86 100 100 98 100 100 100 87 54 58 61 52 42 78 44 47 44
33 33 32 31 29 29 29 32 52 71 94 77 100 100 100 95 88 56 49 65 62 58 52 52 80 83 66 78 100 100 99 100 100 100 88 64 59 54 56 52 56 69 72 61
32 31 31 30 30 30 29 31 35 76 91 95 100 100 100 100 95 83 73 60 61 64 40 37 71 62 51 72 100 100 100 100 100 100 88 71 57 54 57 58 67 100 87 81
30 30 30 30 31 31 31 38 54 77 99 100 100 100 100 99 94 76 68 70 68 49 44 62 68 56 76 91 100 100 100 100 100 100 84 72 61 48 60 65 83 89 90 100
31 32 30 32 32 34 35 55 80 99 100 100 100 100 100 99 100 70 56 54 50 50 51 46 63 75 95 100 100 100 100 100 100 100 83 75 63 50 58 66 82 86 88 89
49 47 41 39 48 49 67 91 100 100 100 86 95 91 81 68 89 100 69 69 62 40 50 67 82 91 78 90 100 99 100 100 100 100 84 77 67 56 51 55 79 86 84 85
89 74 84 80 89 95 98 100 100 100 82 74 80 73 83 76 72 100 100 96 85 97 84 75 78 82 66 54 60 78 99 100 100 100 86 81 70 58 54 58 60 83 79 78
100 100 100 100 100 100 100 100 99 99 100 100 99 86 93 83 78 99 100 100 92 79 62 62 70 77 57 55 51 64 98 100 100 100 95 75 72 67 54 62 60 63 68 74
100 100 100 100 100 100 100 95 100 100 88 83 86 99 100 100 100 100 100 100 85 68 72 79 83 59 63 63 63 76 95 100 100 100 90 74 70 50 64 72 91 79 65 63
88 92 95 100 100 100 97 100 100 100 87 70 77 100 100 100 100 100 100 100 81 84 90 78 64 64 63 63 66 78 95 100 100 100 82 67 64 50 58 87 100 75 65 68
100 100 99 96 86 100 100 100 100 99 78 77 72 92 100 100 100 100 100 92 92 100 83 75 68 66 66 66 75 86 100 100 100 79 65 64 69 76 61 98 97 54 53 60
100 100 100 100 100 100 100 100 92 89 99 100 96 62 89 94 95 100 100 100 100 100 86 77 82 73 66 76 80 76 100 99 77 60 46 78 80 92 83 91 78 56 58 50
100 100 100 92 94 96 99 100 100 100 100 96 77 69 88 74 70 84 99 100 100 90 85 79 74 68 81 85 86 99 99 78 55 46 48 74 100 94 100 54 47 45 69 58
100 100 100 97 93 96 90 87 94 95 87 76 65 75 80 63 58 82 83 85 89 80 75 77 88 83 90 99 100 92 72 57 51 46 41 85 64 61 91 47 39 93 87 89
100 100 100 100 100 100 100 100 100 80 79 73 73 80 100 99 94 95 94 86 74 76 76 79 71 99 93 94 82 73 58 48 43 38 43 49 54 45 40 49 95 100 84 72
100 100 100 100 100 100 100 95 94 82 68 79 83 80 100 100 85 84 78 76 78 75 72 92 100 95 80 71 67 65 50 40 47 62 73 77 69 64 53 65 82 92 82 100
100 100 100 100 100 100 93 87 91 99 95 98 81 92 86 86 95 98 90 84 85 100 100 97 100 80 75 80 74 59 56 57 65 82 60 58 65 79 54 95 100 100 100 100
100 100 100 100 100 100 91 100 100 100 100 100 99 97 89 97 100 100 100 100 100 100 100 94 85 96 96 86 72 54 60 64 94 52 50 79 75 69 89 100 100 100 100 100
100 100 100 100 100 100 98 100 100 100 100 100 100 100 100 100 96 97 100 100 97 84 90 88 100 100 97 78 65 76 67 81 57 46 75 80 99 96 100 100 100 100 100 100
100 100 100 100 100 100 100 100 100 100 100 100 100 100 100 100 91 97 100 88 78 99 100 100 100 93 85 80 86 79 71 63 53 100 82 100 84 100 100 100 100 100 100 100
96 100 100 100 100 97 100 98 100 100 100 100 100 98 100 100 100 98 94 94 100 100 100 100 84 88 90 94 86 86 94 79 87 99 100 99 100 100 100 100 100 100 100 100
51 68 83 99 100 90 100 100 98 100 100 100 100 95 93 100 100 100 99 98 100 100 100 95 91 89 88 65 84 81 51 79 80 100 100 100 100 100 100 100 100 100 100 100
26 43 65 78 85 79 81 85 86 93 100 100 100 100 100 93 92 100 100 95 99 100 91 76 99 81 80 73 81 92 100 100 97 98 100 100 100 100 100 100 100 100 100 100
16 19 24 34 50 68 78 98 99 97 84 74 65 69 90 99 100 100 100 100 98 78 79 68 67 88 95 87 95 98 95 100 100 99 100 100 100 100 100 100 100 100 89 71
21 25 28 27 40 55 50 49 58 67 70 86 96 86 100 100 99 98 99 78 64 62 59 61 76 67 86 100 91 95 100 100 98 100 100 100 100 100 100 100 94 59 29 25
37 50 46 38 78 90 100 100 100 100 100 100 100 93 89 90 98 81 84 63 90 81 82 94 99 100 99 74 95 99 73 95 100 100 100 100 100 100 74 43 30 27 20 9